Regional Weather Roundup
Issued by NWS

Home | Current Version | Previous Version | Graphics & Text | Print | Product List | Glossary On
Versions: 1 2 3 4 5 6 7 8 9 10 11 12 13 14 15 16 17 18 19 20 21 22 23 24 25 26 27 28 29 30 31 32 33 34 35 36 37 38 39 40 41 42 43 44 45 46 47 48 49 50
000
ASUS43 KIND 060459
RWRIN

WEATHER ROUNDUP FOR INDIANA
NATIONAL WEATHER SERVICE INDIANAPOLIS IN
100 AM EDT WED MAY 06 2015

NOTE: "FAIR" INDICATES FEW OR NO CLOUDS BELOW 12,000 FEET WITH NO
SIGNIFICANT WEATHER AND/OR OBSTRUCTIONS TO VISIBILITY.

* - STATION DOES NOT REPORT WEATHER SUCH AS PRECIPITATION OR FOG.

+ - STATION NOT QUALITY CONTROLLED BY THE NATIONAL WEATHER SERVICE.
    USE DATA WITH CAUTION...ESPECIALLY DEWPOINT AND RELATIVE
    HUMIDITY OBSERVATIONS.

INZ001>003-010>013-019-020-060600-
NORTHWEST INDIANA

CITY           SKY/WX    TMP DP  RH WIND       PRES   REMARKS

$$

LMZ046-743>745-060600-
SOUTHERN LAKE MICHIGAN

STATION/POSITION TIME  TEMP    WIND        PRES    WAVE
                       AIR SEA DIR/SP/G            HT
                 (UTC) (F)     (DEG/KT/KT) (MB)    (FT)
BURNS HARBOR     0400   50     260/  3/  4 1023.4S
MICHIGAN CITY    0400   56      70/  6/  8   N/A
5NW MICH CITY    0400   51 50   50/  6/  8   N/A     1

$$

INZ004-005-014>016-021>024-060600-
NORTH CENTRAL INDIANA

CITY           SKY/WX    TMP DP  RH WIND       PRES   REMARKS
GOSHEN         CLOUDY    55  53  93 E10       30.23S FOG
PERU/GRISSOM   CLOUDY    59  57  94 E9        30.19S FOG
SOUTH BEND     CLOUDY    55  53  93 E8        30.23S FOG

$$

INZ006>009-017-018-025>027-060600-
NORTHEAST INDIANA

CITY           SKY/WX    TMP DP  RH WIND       PRES   REMARKS
ANGOLA *+      CLOUDY    52  39  62 SE8       30.25S
FORT WAYNE     MOCLDY    54  52  93 E10       30.24F

$$

INZ028-029-035-036-043>045-051>053-060600-
WEST CENTRAL INDIANA

CITY           SKY/WX    TMP DP  RH WIND       PRES   REMARKS
GREENCASTLE +  CLEAR     61  50  67 CALM      30.20S
LAFAYETTE      PTCLDY    63  61  93 NE5       30.17S
TERRE HAUTE    PTCLDY    67  54  63 S3        30.18R

$$

INZ030>032-037>040-046>048-054>057-064-065-060600-
CENTRAL INDIANA

CITY           SKY/WX    TMP DP  RH WIND       PRES   REMARKS
INDIANAPOLIS   PTCLDY    67  53  61 SW5       30.18R
-EAGLE CREEK   MOCLDY    64  56  75 CALM      30.19R
KOKOMO *+      PTCLDY    57  57 100 E8        30.21R
MT COMFORT *+  PTCLDY    63  48  59 CALM      30.20S
SHELBYVILLE    PTCLDY    66  53  63 S3        30.19S

$$

INZ033-034-041-042-049-050-058-059-060600-
EAST CENTRAL INDIANA

CITY           SKY/WX    TMP DP  RH WIND       PRES   REMARKS
MUNCIE         CLEAR     59  56  89 NE5       30.21R FOG

$$

INZ060-061-067>069-081>083-085>088-060600-
SOUTHWEST INDIANA

CITY           SKY/WX    TMP DP  RH WIND       PRES   REMARKS
EVANSVILLE     FAIR      64  55  72 CALM      30.19S
HUNTINGBURG *+ CLEAR     63  54  72 SE5       30.20S

$$

INZ062-063-066-070>080-084-089>092-060600-
SOUTH CENTRAL AND SOUTHEAST INDIANA

CITY           SKY/WX    TMP DP  RH WIND       PRES   REMARKS
BLOOMINGTON    CLEAR     59  53  80 CALM      30.20S
MADISON *+     CLEAR     61  54  77 CALM      30.23S
SEYMOUR +      PTCLDY    61  57  88 CALM      30.19S

$$




USA.gov is the U.S. government's official web portal to all federal, state and local government web resources and services.